Location: Nebula Knoll Observatory
(43.6666°N, 71.0000°W)
Time: 00:09:46
(UTC-04:00)

Daily predictions for brighter satellites

Satellite Brightness Start Highest point End
(mag) Time Altitude Azimuth Time Altitude Azimuth Time Altitude Azimuth
CZ-4C R/B 4.0 03:32:42 28° N 03:35:42 39° NE 03:42:54 10° ESE
Cosmos 1943 Rocket 3.8 03:42:23 29° ESE 03:42:23 29° ESE 03:47:00 10° NE
USA 215 4.0 03:47:22 10° NE 03:52:39 42° N 03:52:39 42° N
ADEOS II 2.8 04:00:42 10° NNE 04:05:19 51° ENE 04:05:19 51° ENE
Cosmos 2369 Rocket 2.4 04:16:04 64° NNE 04:16:04 64° NNE 04:20:50 10° NNE
Okean O Rocket 3.1 04:18:30 10° NNE 04:22:33 35° E 04:24:03 27° SE
CENTAUR R/B 4.1 04:23:32 23° NNW 04:23:41 23° NNW 04:29:19 10° NNE
USA 267 4.2 04:19:05 10° SSE 04:22:39 31° S 04:22:39 31° S
Cosmos 1898 Rocket 3.4 04:40:07 71° S 04:40:42 84° ESE 04:45:55 10° NNE
Cosmos 1610 Rocket 4.5 04:39:13 10° N 04:45:26 81° E 04:51:34 10° S
Cosmos 1937 Rocket 3.8 04:43:33 33° S 04:45:54 68° ESE 04:51:12 10° NNE
Lacrosse 5 2.8 04:46:17 35° NNW 04:46:17 35° NNW 04:50:35 10° NE
Cosmos 2327 Rocket 4.4 04:42:35 10° N 04:48:54 75° W 04:55:16 10° S
Cosmos 858 Rocket 4.4 04:48:29 48° SSW 04:50:01 86° ESE 04:55:19 10° NNE
CZ-4B DEB 4.4 04:49:09 10° NNE 04:54:38 69° ESE 05:00:07 10° S
Meteor 2-19 Rocket 4.3 04:49:57 10° N 04:56:08 83° W 05:02:18 10° S
Cosmos 2184 Rocket 4.0 04:51:58 10° NNW 04:58:06 57° W 05:04:09 10° S
Cosmos 1733 3.2 04:54:24 10° N 04:58:18 81° E 05:02:10 10° S
Cosmos 1378 3.9 05:02:37 10° S 05:06:18 53° E 05:09:59 10° NNE
Cosmos 1242 Rocket 2.5 05:02:43 10° N 05:06:27 84° E 05:10:08 10° S
Cosmos 2298 Rocket 3.9 05:03:56 30° SSW 05:06:40 81° WNW 05:12:03 10° NNE
Milstar 3 4.1 05:05:11 19° SSW 05:07:38 23° S 05:13:32 10° SE
Cosmos 2341 Rocket 4.3 05:02:28 10° N 05:08:52 70° E 05:15:14 10° SSE
Cosmos 990 Rocket 3.8 05:08:46 25° SSW 05:11:49 80° WNW 05:17:01 10° NNE
Cosmos 1656 Rocket 3.9 05:07:13 10° SSW 05:12:51 71° ESE 05:18:31 10° NNE
CZ-4B R/B 3.1 05:08:34 10° NNE 05:14:02 89° WNW 05:19:34 10° SSW
Tiangong 2 1.2 05:18:05 61° S 05:18:05 61° S 05:21:08 10° ESE
GPS 2-04 Rocket1 4.1 05:19:34 23° SSW 05:19:48 23° S 05:22:44 10° SE
ERBS 4.4 05:20:32 15° NNW 05:22:30 23° NNE 05:25:21 10° E
Landsat 4 3.6 05:20:02 10° SSE 05:23:49 89° WSW 05:27:36 10° NNW
CZ-4C R/B 2.9 05:17:57 12° NW 05:24:42 62° WSW 05:32:33 10° SSE
Cosmos 44 3.4 05:23:37 35° WNW 05:25:07 48° WSW 05:29:44 10° SSE
Cosmos 1943 Rocket 2.5 05:23:58 32° WSW 05:25:50 43° WNW 05:31:08 10° NNE
APEX 3.1 05:33:59 22° NW 05:36:10 64° WSW 05:40:29 10° SSE
Cosmos 1953 Rocket 3.5 05:31:53 10° SSW 05:36:10 61° W 05:40:28 10° N
Cosmos 44 Rocket 3.7 05:35:13 24° WNW 05:37:31 40° WSW 05:42:05 10° S
Meteor 1-28 Rocket 3.2 05:33:58 10° SSE 05:37:46 88° ENE 05:41:37 10° NNW
Cosmos 1825 Rocket 3.9 05:35:39 16° SW 05:38:46 41° WNW 05:42:59 10° N
Cosmos 1295 Rocket 4.4 05:33:25 10° N 05:39:43 79° W 05:46:02 10° S
Cosmos 1809 Rocket 4.4 05:34:10 10° N 05:40:18 82° W 05:46:25 10° S
Nadezhda 1 Rocket 4.5 05:35:28 10° SW 05:41:24 39° WNW 05:47:21 10° N
MTI 3.7 05:38:31 10° SSE 05:41:46 84° WSW 05:45:03 10° NNW
CZ-4B R/B 4.3 05:40:24 10° NNW 05:42:00 17° NW 05:42:00 17° NW
CZ-2C R/B 3.8 05:39:04 10° S 05:43:46 59° W 05:48:27 10° NNW
SJ 16-02 2.5 05:40:14 10° S 05:44:25 45° ESE 05:48:38 10° NNE
ADEOS II 3.3 05:41:15 10° NNW 05:45:11 22° WNW 05:46:16 20° W
SJ-6F 4.3 05:41:43 10° N 05:45:47 70° WNW 05:49:49 10° SSW
Cosmos 1470 3.5 05:42:29 10° NNW 05:45:56 30° W 05:49:20 10° SSW
Meteor PRIRODA 4.1 05:43:58 10° N 05:47:31 41° WNW 05:51:03 10° SW
SKYMED 2 3.8 05:45:36 10° SSE 05:49:54 73° ENE 05:54:16 10° N
Cosmos 158 Rocket 4.1 05:47:30 10° NNW 05:52:55 90° NNE 05:58:19 10° SSE
Cosmos 1340 Rocket 3.8 05:51:46 20° WSW 05:53:24 26° WNW 05:56:51 10° NNW
NOSS 3-1 (C) 3.4 05:50:45 10° SSW 05:56:28 88° SE 06:02:59 10° NE
Shenzhou-11 Module 3.4 05:55:35 20° WSW 05:56:44 25° SSW 05:59:20 10° SE
USA 229 DEB 3.9 05:50:33 12° WSW 05:56:48 54° NW 06:03:37 10° NNE
USA 229 3.9 05:50:36 12° WSW 05:56:53 54° NW 06:03:42 10° NNE
Meteor 1-31 Rocket 3.2 05:53:54 10° N 05:57:26 37° WNW 06:00:57 10° SW
Okean O Rocket 2.7 05:55:14 10° NNW 05:58:44 24° WNW 06:01:30 14° WSW
Cosmos 2227 Rocket 3.6 05:53:37 10° NNW 05:58:58 40° ENE 06:04:16 10° SE
Intercosmos 24 4.1 05:54:06 10° N 05:59:33 80° W 06:03:28 10° S
Cosmos 2369 Rocket 3.7 05:57:54 15° WNW 05:59:56 18° NW 06:03:42 10° N
CZ-2C R/B 4.0 05:55:27 10° NNE 06:00:04 40° E 06:04:47 10° SSE
NOSS 3-1 (A) 3.7 05:55:10 10° SSW 06:00:52 70° ESE 06:07:18 10° NE
IDEFIX/ARIANE 42P 3.5 05:56:47 10° NNE 06:01:56 54° E 06:07:02 10° S
Cosmos 1269 Rocket 4.2 05:57:14 10° NNW 06:02:35 79° ENE 06:07:53 10° SSE
Meteor 2-21 Rocket 4.4 05:57:51 10° NNW 06:03:53 70° W 06:09:55 10° S
Okean-O 2.6 06:04:19 10° N 06:08:45 72° WNW 06:13:10 10° SSW
Cosmos 2366 rocket 4.0 06:02:54 10° N 06:09:05 86° W 06:15:15 10° S
Thor Agena Rocket 4.3 06:04:32 10° SSE 06:09:42 57° ENE 06:14:50 10° N
Cosmos 1356 3.5 06:06:47 10° S 06:10:15 84° E 06:13:46 10° NNE
USA 116 4.3 06:08:05 10° SSW 06:11:08 29° W 06:14:31 10° NNW
Meteor 2-5 Rocket 4.0 06:06:32 10° SSW 06:12:18 53° WNW 06:18:02 10° N
Cosmos 1674 4.2 06:11:50 10° SSE 06:15:21 41° E 06:18:54 10° NNE
Cosmos 1707 4.0 06:12:54 10° WSW 06:15:56 21° WNW 06:18:59 10° NNW
Cosmos 2219 3.3 06:16:27 10° NNW 06:21:59 54° WSW 06:27:26 10° S
Meteor 2-1 Rocket 4.3 06:17:04 10° NNW 06:23:02 83° W 06:28:54 10° S
SL-8 Rocket 4.2 06:17:55 10° NNW 06:23:58 50° W 06:30:02 10° SSW
Cosmos 1356 Rocket 4.2 06:21:56 10° SW 06:25:44 31° WNW 06:29:37 10° N
NOAA 6 4.2 06:21:44 10° N 06:26:48 54° WNW 06:31:48 10° SSW
ATLAS 3B R/B 4.4 06:23:19 10° NNW 06:28:51 25° NNE 06:34:11 10° E
Lacrosse 5 3.7 06:26:38 10° NW 06:30:09 18° N 06:33:41 10° NE
Cosmos-2242 4.1 06:28:51 10° NW 06:32:12 23° W 06:35:33 10° SW
Cosmos 372 Rocket 4.1 06:27:57 10° SW 06:33:04 58° WNW 06:38:16 10° NNE
Cosmos 1125 Rocket 3.7 06:28:30 10° SW 06:33:36 52° WNW 06:38:47 10° NNE
PAYLOAD A 3.8 06:29:45 10° N 06:34:26 69° WNW 06:39:10 10° SSW
Cosmos 1908 3.3 06:30:36 10° N 06:34:29 84° E 06:38:18 10° S
Cosmos 2297 Rocket 2.7 06:31:46 10° NNW 06:37:25 65° ENE 06:43:00 10° SE
